Date String (YYYY-MM-DD hh:mm:ss) UTC,Instrument flags,absolute air pressure of the measurement (hPa),sample flow rate (lpm),inlet stack bypass flow (lpm),air temperature of the measurement (°C),ambient temperature measured by the external sensor (°C),aerosol sample conditioner tube jacket temperature (°C),OPC LED temperature (°C),internal box temperature (°C),relative humidity of the measurement (%),span deviation,mass concentration of particles derived from Lorenz-Mie calculation of OPC scattering (μg/m³),mass concentration of particles derived from Lorenz-Mie calculation of OPC scattering (μg/m³),mass concentration of particles derived from Lorenz-Mie calculation of OPC scattering (μg/m³)
DateTimeUTC,F1_M11,P_M11,Q1_M11,Q2_M11,T1_M11,T2_M11,T3_M11,T4_M11,T5_M11,U1_M11,ZSPAN_M11,X0_M11,X2_M11,X1_M11
2023-11-25 03:00:00,SystemResetWarning,0829.9,5.01,000.00,019.1,018.6,000.0,027.4,020.8,12.1,0003.7,0008.83,0005.43,0004.98
2023-11-25 03:01:00,SystemResetWarning,0829.9,4.99,000.00,019.3,019.2,000.0,027.4,021.2,12.0,0003.4,0008.81,0005.42,0004.99
2023-11-25 03:02:00,SystemResetWarning,0830.0,4.99,000.00,019.4,019.3,000.0,027.5,021.0,12.0,0003.2,0008.79,0005.42,0004.97
2023-11-25 03:03:00,SystemResetWarning,0829.9,5.01,000.00,019.3,019.2,000.0,027.5,020.8,12.0,0000.6,0008.37,0005.40,0004.95
2023-11-25 03:04:00,SystemResetWarning,0829.9,5.00,000.00,019.3,019.1,000.0,027.5,020.8,12.0,0000.0,0008.16,0005.35,0004.91
2023-11-25 03:05:00,SystemResetWarning,0829.9,5.00,000.00,019.3,019.0,000.0,027.5,020.7,12.0,0000.0,0008.30,0005.26,0004.86
2023-11-25 03:06:00,SystemResetWarning,0829.9,5.00,000.00,019.3,018.9,000.0,027.5,020.6,12.0,0000.0,0008.38,0005.21,0004.81
2023-11-25 03:07:00,SystemResetWarning,0830.0,5.00,000.00,019.3,018.8,000.0,027.5,020.5,12.0,0000.0,0008.28,0005.11,0004.72
2023-11-25 03:08:00,SystemResetWarning,0829.9,5.01,000.00,019.3,018.7,000.0,027.5,020.5,12.0,0000.0,0008.05,0004.99,0004.63
2023-11-25 03:09:00,SystemResetWarning,0829.9,5.00,000.00,019.3,018.6,000.0,027.5,020.5,12.0,0000.0,0007.83,0004.86,0004.53
2023-11-25 03:10:00,SystemResetWarning,0829.9,5.00,000.00,019.2,018.6,000.0,027.5,020.4,12.0,0000.0,0007.66,0004.75,0004.44
2023-11-25 03:11:00,SystemResetWarning,0829.9,5.00,000.00,019.2,018.5,000.0,027.5,020.4,12.0,0000.0,0007.47,0004.64,0004.35
2023-11-25 03:12:00,SystemResetWarning,0829.9,4.99,000.00,019.2,018.4,000.0,027.5,020.4,12.0,0000.0,0007.35,0004.56,0004.27
2023-11-25 03:13:00,SystemResetWarning,0830.0,4.98,000.00,019.2,018.4,000.0,027.5,020.4,12.0,0000.0,0007.25,0004.51,0004.23
2023-11-25 03:14:00,SystemResetWarning,0829.9,5.00,000.00,019.2,018.4,000.0,027.5,020.3,12.0,0000.0,0007.05,0004.45,0004.19
2023-11-25 03:15:00,SystemResetWarning,0829.9,5.01,000.00,019.2,018.3,000.0,027.5,020.4,12.0,0000.0,0007.05,0004.43,0004.18
2023-11-25 03:16:00,SystemResetWarning,0829.9,5.01,000.00,019.2,018.3,000.0,027.5,020.4,12.0,0000.0,0006.64,0004.46,0004.18
2023-11-25 03:17:00,SystemResetWarning,0829.9,5.01,000.00,019.1,018.3,000.0,027.5,020.3,12.0,0000.0,0006.47,0004.47,0004.19
2023-11-25 03:18:00,SystemResetWarning,0829.9,5.00,000.00,019.1,018.2,000.0,027.5,020.3,12.0,0000.0,0006.52,0004.48,0004.21
2023-11-25 03:19:00,SystemResetWarning,0829.9,5.00,000.00,019.1,018.2,000.0,027.5,020.2,12.0,0000.0,0006.72,0004.52,0004.24
2023-11-25 03:20:00,SystemResetWarning,0829.8,5.00,000.00,019.1,018.2,000.0,027.4,020.2,12.0,0000.0,0006.95,0004.58,0004.28
2023-11-25 03:21:00,SystemResetWarning,0829.8,4.98,000.00,019.1,018.1,000.0,027.4,020.2,12.0,0000.0,0007.09,0004.65,0004.34
2023-11-25 03:22:00,SystemResetWarning,0829.8,5.00,000.00,019.1,018.4,000.0,027.4,020.7,12.0,0000.0,0007.33,0004.76,0004.42
2023-11-25 03:23:00,SystemResetWarning,0829.9,5.02,000.00,019.3,019.1,000.0,027.4,021.1,11.9,0000.0,0007.52,0004.86,0004.49
2023-11-25 03:24:00,SystemResetWarning,0830.0,5.00,000.00,019.4,019.4,000.0,027.5,021.1,11.9,0000.0,0007.59,0004.91,0004.55
2023-11-25 03:25:00,SystemResetWarning,0830.0,5.00,000.00,019.4,019.3,000.0,027.5,020.9,11.8,0000.0,0007.70,0004.96,0004.59
2023-11-25 03:26:00,SystemResetWarning,0830.0,4.99,000.00,019.3,019.2,000.0,027.5,020.7,11.8,0000.0,0007.76,0005.00,0004.63
2023-11-25 03:27:00,SystemResetWarning,0829.9,5.01,000.00,019.3,019.0,000.0,027.5,020.7,11.8,0000.0,0007.79,0005.03,0004.64
2023-11-25 03:28:00,SystemResetWarning,0829.9,5.02,000.00,019.3,018.9,000.0,027.5,020.6,11.9,0000.0,0007.83,0005.05,0004.66
2023-11-25 03:29:00,SystemResetWarning,0829.9,5.00,000.00,019.3,018.8,000.0,027.5,020.5,11.9,0000.0,0007.83,0005.08,0004.66
2023-11-25 03:30:00,SystemResetWarning,0829.9,5.00,000.00,019.3,018.7,000.0,027.5,020.5,11.9,0000.0,0008.41,0005.07,0004.65
2023-11-25 03:31:00,SystemResetWarning,0829.9,4.99,000.00,019.3,018.6,000.0,027.5,020.4,11.9,0000.0,0008.49,0005.06,0004.63
2023-11-25 03:32:00,SystemResetWarning,0830.0,4.99,000.00,019.2,018.5,000.0,027.5,020.4,11.9,0000.0,0008.45,0005.01,0004.57
2023-11-25 03:33:00,SystemResetWarning,0830.0,5.01,000.00,019.2,018.5,000.0,027.5,020.4,11.9,0000.0,0008.35,0004.92,0004.50
2023-11-25 03:34:00,SystemResetWarning,0830.0,5.01,000.00,019.2,018.4,000.0,027.5,020.4,11.9,0000.0,0008.24,0004.83,0004.42
2023-11-25 03:35:00,SystemResetWarning,0830.0,5.01,000.00,019.2,018.4,000.0,027.5,020.3,11.9,0000.0,0008.25,0004.78,0004.36
2023-11-25 03:36:00,SystemResetWarning,0830.0,4.99,000.00,019.2,018.4,000.0,027.5,020.3,11.9,0000.0,0008.12,0004.70,0004.29
2023-11-25 03:37:00,SystemResetWarning,0829.9,4.99,000.00,019.2,018.4,000.0,027.5,020.3,11.9,0000.4,0008.08,0004.65,0004.24
2023-11-25 03:38:00,SystemResetWarning,0830.0,5.00,000.00,019.2,018.3,000.0,027.5,020.3,11.9,0001.1,0008.04,0004.59,0004.18
2023-11-25 03:39:00,SystemResetWarning,0830.0,5.00,000.00,019.2,018.3,000.0,027.5,020.3,11.9,0000.0,0008.09,0004.52,0004.13
2023-11-25 03:40:00,SystemResetWarning,0829.9,5.01,000.00,019.1,018.3,000.0,027.5,020.3,11.9,0000.0,0008.19,0004.45,0004.08
2023-11-25 03:41:00,SystemResetWarning,0829.9,5.00,000.00,019.1,018.2,000.0,027.5,020.3,12.0,0000.0,0007.67,0004.42,0004.05
2023-11-25 03:42:00,SystemResetWarning,0829.8,5.00,000.00,019.1,018.2,000.0,027.4,020.2,12.0,0000.0,0007.40,0004.36,0004.02
2023-11-25 03:43:00,SystemResetWarning,0829.8,4.99,000.00,019.1,018.2,000.0,027.4,020.2,12.0,0000.0,0007.35,0004.33,0004.00
2023-11-25 03:44:00,SystemResetWarning,0829.8,5.00,000.00,019.1,018.2,000.0,027.4,020.2,12.0,0000.0,0007.38,0004.32,0003.98
2023-11-25 03:45:00,SystemResetWarning,0829.7,5.00,000.00,019.1,018.2,000.0,027.4,020.2,12.0,0000.0,0007.35,0004.31,0003.98
2023-11-25 03:46:00,SystemResetWarning,0829.7,5.01,000.00,019.1,018.2,000.0,027.4,020.2,12.0,0000.0,0007.21,0004.30,0004.00
2023-11-25 03:47:00,SystemResetWarning,0829.7,4.99,000.00,019.1,018.1,000.0,027.4,020.2,12.0,0000.0,0007.11,0004.29,0004.00
2023-11-25 03:48:00,SystemResetWarning,0829.7,5.00,000.00,019.1,018.1,000.0,027.4,020.1,12.0,0000.0,0007.10,0004.30,0004.00
2023-11-25 03:49:00,SystemResetWarning,0829.7,5.02,000.00,019.1,018.1,000.0,027.4,020.3,12.0,0000.0,0007.13,0004.31,0004.00
2023-11-25 03:50:00,SystemResetWarning,0829.7,5.01,000.00,019.1,018.5,000.0,027.4,020.8,12.0,0000.0,0006.81,0004.31,0003.99
2023-11-25 03:51:00,SystemResetWarning,0829.7,4.99,000.00,019.3,019.2,000.0,027.4,021.1,11.9,0000.0,0006.49,0004.31,0004.00
2023-11-25 03:52:00,SystemResetWarning,0829.8,4.99,000.00,019.3,019.3,000.0,027.4,021.0,11.8,0000.0,0006.51,0004.31,0003.99
2023-11-25 03:53:00,SystemResetWarning,0829.8,5.00,000.00,019.4,019.2,000.0,027.5,020.9,11.8,0000.0,0006.55,0004.34,0004.00
2023-11-25 03:54:00,SystemResetWarning,0829.8,5.01,000.00,019.3,019.1,000.0,027.5,020.8,11.8,0000.0,0006.77,0004.37,0004.01
2023-11-25 03:55:00,SystemResetWarning,0829.8,5.00,000.00,019.3,019.0,000.0,027.5,020.7,11.8,0000.0,0006.85,0004.39,0004.02
2023-11-25 03:56:00,SystemResetWarning,0829.8,4.99,000.00,019.3,018.9,000.0,027.5,020.6,11.8,0000.0,0007.00,0004.42,0004.03
2023-11-25 03:57:00,SystemResetWarning,0829.8,4.99,000.00,019.3,018.8,000.0,027.5,020.5,11.8,0000.0,0007.01,0004.41,0004.02
2023-11-25 03:58:00,SystemResetWarning,0829.8,5.00,000.00,019.3,018.7,000.0,027.5,020.4,11.8,0000.0,0006.98,0004.40,0004.02
2023-11-25 03:59:00,SystemResetWarning,0829.8,5.01,000.00,019.3,018.6,000.0,027.5,020.5,11.9,0000.0,0006.98,0004.39,0004.01
